User: anonymous   Login
Location: Pella
(41.4080°N, 92.9160°W)
Time: 05:26:20
(UTC-06:00)
Language:

Iridium 91 - Orbit

View from above orbital plane
View from above orbital plane
View from above satellite
View from above satellite

Ground track
Ground track

The orbit data is extracted from the following two-line orbital elements,

1 27372U 02005A   16036.51626668  .00000020  00000-0  78179-7 0  9995
2 27372  86.4015 135.8475 0002367  95.3095 357.8113 14.34214943740294
Epoch (UTC): 05 February 2016 12:23:25
Eccentricity: 0.0002367
inclination: 86.4015°
perigee height: 776 km
apogee height: 779 km
right ascension of ascending node: 135.8475°
argument of perigee: 95.3095°
revolutions per day: 14.34214943
mean anomaly at epoch: 357.8113°
orbit number at epoch: 74029

The dashed part of the orbit path shows where the satellite is in the earth's shadow,  

DLR